Location: Recife
(8.0585°S, 34.8848°W)
Time: 10:25:31
(UTC-03:00)

Courier 1B Rocket - Pass Details

Date: 14 April 2026
Orbit: 920 x 1201 km, 28.2° (Epoch: 13 May)

Event Time Altitude Azimuth Distance (km) Brightness Sun altitude
Rises 11:30:25 0° 228° (SW) 3,994 8.1 72.2°
Reaches altitude 10° 11:34:01 10° 212° (SSW) 3,072 7.6 72.0°
Maximum altitude 11:39:36 21° 165° (SSE) 2,375 7.1 71.7°
Drops below altitude 10° 11:45:16 10° 118° (ESE) 3,133 7.6 71.3°
Sets 11:48:58 0° 103° (ESE) 4,094 8.1 70.9°
